Location: Ingoldesthorpe
(52.8667°N, 0.5167°E)
Time: 13:55:25
(UTC+00:00)

USA 229 DEB - Pass Details

Date: 19 May 2025
Orbit: 872 x 1339 km, 63.4° (Epoch: 17 June)

Event Time Altitude Azimuth Distance (km) Brightness Sun altitude
Exits shadow 23:20:44 26° 174° (S) 1,769 4.2 -16.8°
Maximum altitude 23:23:42 43° 121° (ESE) 1,353 4.0 -16.8°
Drops below altitude 10° 23:30:00 10° 53° (NE) 2,899 6.4 -17.0°
Sets 23:32:55 0° 47° (NE) 3,934 7.2 -17.0°
